SEDSat Delta rocket - Orbit

View from above orbital plane
View from above orbital plane
View from above satellite
View from above satellite

Ground track
Ground track

The orbit data is extracted from the following two-line orbital elements,

1 25510U 98061C   13143.11927262  .00000543  00000-0  84803-4 0  6029
2 25510 031.4383 011.4332 0337013 241.2615 264.1415 14.34802091763505
Epoch (UTC): 23 May 2013 02:51:45
Eccentricity: 0.0337013
inclination: 31.4383°
perigee height: 534 km
apogee height: 1017 km
right ascension of ascending node: 11.4332°
argument of perigee: 241.2615°
revolutions per day: 14.34802091
mean anomaly at epoch: 264.1415°
orbit number at epoch: 76350

The dashed part of the orbit path shows where the satellite is in the earth's shadow,  

Developed and maintained by Chris Peat, Heavens-Above GmbH. Please read the updated FAQ before sending e-mail. Imprint. DLR